SCP
0 0 0 0 0 0 0 0 0 0 0 0 0 0 0 0 0 0 0 0 0 0 0 0 0 0 0 0 0 0 0 0 0 0 0 0 0 0 0 0 0 0 0 0
0 0 0 0 0 0 0 0 0 0 0 0 0 0 0 0 0 0 0 0 0 0 0 0 0 0 0 0 0 0 0 0 0 0 0 0 0 0 0 0 0 0 0 0
0 0 0 0 0 0 0 0 0 0 0 0 0 0 0 0 0 0 0 0 0 0 0 0 0 0 0 0 0 0 0 0 0 0 0 0 0 0 0 0 0 0 0 0
0 0 0 0 0 0 0 0 0 0 0 0 0 0 0 0 0 0 0 0 0 0 0 0 0 0 0 0 0 0 0 0 0 0 0 0 0 0 0 0 0 0 0 0
0 0 0 0 0 0 0 0 0 0 0 0 0 0 0 0 0 0 0 0 0 0 0 0 0 0 0 0 0 0 0 0 0 0 0 0 0 0 0 0 0 0 0 0
0 0 0 0 0 0 0 0 0 0 0 0 0 0 0 0 0 0 0 0 0 0 0 0 0 0 0 0 0 0 0 0 0 0 0 0 0 0 0 0 0 0 0 0
0 0 0 0 0 0 0 0 0 0 0 0 0 0 0 0 0 0 0 0 0 0 0 0 0 0 0 0 0 0 0 0 0 0 0 0 0 0 0 0 0 0 0 0
0 0 0 0 0 0 0 0 0 0 0 0 0 0 0 0 0 0 0 0 0 0 0 0 0 0 0 0 0 0 0 0 0 0 0 0 0 0 0 0 0 0 0 0
0 0 0 0 0 0 0 0 0 0 0 0 0 0 0 0 0 0 0 0 0 0 0 0 0 0 0 0 0 0 0 0 0 0 0 0 0 0 0 0 0 0 0 0
0 0 0 0 0 0 0 0 0 0 0 0 0 0 0 0 0 0 0 0 0 0 0 0 0 0 0 0 0 0 0 0 0 0 0 0 0 0 0 0 0 0 0 0
0 0 0 0 0 0 0 0 0 0 0 0 0 0 0 0 0 0 0 0 0 0 0 0 0 0 0 0 0 0 0 0 0 0 0 0 0 0 0 0 0 0 0 0
0 -0 -0 0 0 0 0 0 0 0 0 0 0 0 0 0 0 0 0 0 0 0 0 0 0 0 0 0 0 0 0 0 0 0 0 0 0 0 0 0 0 0 0 0
0 0 0 0 0 0 0 0 0 0 0 0 0 0 0 0 0 0 0 0 0 0 0 0 0 0 0 0 0 0 0 0 0 0 0 0 0 0 0 0 0 0 0 0
0 0 0 0 0 0 0 0 0 0 0 0 0 0 0 0 0 0 0 0 0 0 0 0 0 0 0 0 0 0 0 0 0 0 0 0 0 0 0 0 0 0 0 0
0 0 0 0 0 0 0 0 0 0 0 0 0 0 0 0 0 0 0 0 0 0 0 0 0 0 0 0 0 0 0 0 0 0 0 0 0 0 0 0 0 0 0 0
0 0 -0 0 0 0 0 0 0 0 0 0 0 0 0 0 0 0 0 0 0 0 0 0 0 0 0 0 0 0 0 0 0 0 0 0 0 0 0 0 0 0 0 0
0 -0 -0 0 0 0 0 0 0 0 0 0 0 0 0 0 0 0 0 0 0 0 0 0 0 0 0 0 0 0 0 0 0 0 0 0 0 0 0 0 0 0 0 0
0 0 0 0 0 0 0 0 0 0 0 0 0 0 0 0 0 0 0 0 0 0 0 0 0 0 0 0 0 0 0 0 0 0 0 0 0 0 0 0 0 0 0 0
-0 0 0 0 0 0 0 0 0 0 0 0 0 0 0 0 0 0 0 0 0 0 0 0 0 0 0 0 0 0 0 0 0 0 0 0 0 0 0 0 0 0 0 0
-0 -0 -0 0 0 0 0 0 0 0 0 0 0 0 0 0 0 0 0 0 0 0 0 0 0 0 0 0 0 0 0 0 0 0 0 0 0 0 0 0 0 0 0 0
-0 -0 0 0 0 0 0 0 0 0 0 0 0 0 0 0 0 0 0 0 0 0 0 0 0 0 0 0 0 0 0 0 0 0 0 0 0 0 0 0 0 0 0 0
-0 0 0 0 0 0 0 0 0 0 0 0 0 0 0 0 0 0 0 0 0 0 0 0 0 0 0 0 0 0 0 0 0 0 0 0 0 0 0 0 0 0 0 0
0 0 0 0 0 0 0 0 0 0 0 0 0 0 0 0 0 0 -0 -0 -0 0 0 0 0 0 0 0 0 0 0 0 0 0 0 0 0 0 0 0 0 0 0 0
0 0 0 0 0 0 0 0 0 0 0 0 0 0 0 -0 0 -0 -0 -0 -0 -0 0 0 0 0 0 0 0 0 0 0 0 0 0 0 0 0 0 0 0 0 0 0
-0 -0 -0 -0 0 0 -0 -0 -0 -0 -0 -0 -0 -0 -0 -0 -0 -0 -0 -0 -0 0 0 0 0 0 0 0 0 0 0 0 0 0 0 0 0 0 0 0 0 0 0 0
-0 -0 -0 0 -0 0 0 0 0 0 0 -0 -0 -0 -0 -0 -0 -0 -0 -0 0 0 0 0 0 0 0 0 0 0 0 0 0 0 0 0 0 0 0 0 0 0 0 0
-0 -0 0 0 0 0 0 0 0 0 0 -0 -0 -0 -0 -0 -0 -0 -0 0 0 0 0 0 0 0 0 0 0 0 0 0 0 0 0 0 0 0 0 0 0 0 0 0
Wind_Speed_500mb
41 48 46 48 37 39 51 56 53 58 49 61 65 51 52 61 56 66 67 63 78 87 89 78 74 80 86 92 102 99 85 71 58 46 37 34 33 35 40 48 51 56 60 63
53 58 64 68 41 67 63 68 51 47 54 70 72 91 76 95 79 87 85 81 82 91 84 77 84 88 91 93 104 98 82 67 55 43 36 32 32 34 41 47 49 53 58 65
45 49 46 28 66 69 81 76 64 60 68 72 67 59 64 88 74 81 92 91 78 86 86 81 82 86 91 95 106 95 80 66 53 43 35 31 31 35 41 45 48 51 57 63
21 17 34 43 49 72 72 68 66 56 73 70 70 89 97 87 70 79 89 93 83 85 75 73 73 78 81 92 103 93 81 67 55 44 34 30 29 32 38 45 48 51 55 58
17 31 34 6 33 45 42 65 56 64 68 69 92 45 81 81 85 95 95 88 81 89 63 61 72 76 83 89 99 89 78 64 51 40 31 25 26 31 39 45 47 48 53 60
25 27 39 40 58 52 11 16 59 57 57 57 15 17 37 79 66 71 70 70 67 60 55 61 73 79 80 102 104 91 74 59 44 33 26 21 21 30 39 45 46 48 52 58
46 42 28 23 17 11 23 38 63 72 58 49 43 50 86 55 38 49 51 54 50 48 54 59 67 73 84 107 100 85 70 55 41 30 23 19 20 28 38 42 43 46 53 54
25 35 50 34 54 48 57 76 72 67 53 42 64 82 80 80 84 62 60 59 57 53 61 68 68 76 98 102 89 76 62 48 36 26 21 17 20 24 34 40 43 48 51 52
41 29 23 43 59 100 110 81 75 64 73 50 62 71 83 82 84 84 75 71 65 63 68 67 73 88 103 98 84 72 57 43 32 24 19 16 16 21 27 32 39 45 41 45
50 57 46 40 61 79 85 90 97 93 91 57 61 68 77 77 83 87 85 82 70 67 70 77 92 100 103 94 79 62 50 37 26 22 18 13 14 19 23 28 34 35 36 43
25 42 47 61 66 59 60 74 80 90 84 79 73 80 89 87 92 98 92 88 80 76 77 86 104 104 102 91 76 63 49 37 31 26 19 12 12 13 16 22 29 31 32 38
34 39 34 36 48 63 76 85 84 73 84 94 86 93 90 94 95 99 97 93 90 84 86 94 108 106 96 84 73 63 50 42 35 27 19 11 7 9 11 16 22 24 25 27
47 86 89 78 79 85 79 79 78 74 82 83 98 89 101 99 97 96 92 92 95 98 98 104 117 111 99 85 73 61 52 44 37 29 21 13 10 6 1 11 16 20 25 28
95 96 80 93 85 89 90 103 108 108 106 103 106 101 97 93 94 94 98 96 96 101 98 113 115 105 92 80 72 62 53 43 35 29 22 17 12 6 4 5 9 14 19 28
60 58 58 67 74 78 85 89 94 102 101 101 101 100 96 84 89 108 94 88 96 100 102 128 121 109 96 86 72 61 51 43 38 30 25 20 13 8 4 8 14 16 17 20
62 73 70 51 62 76 71 75 75 82 86 93 96 96 99 90 82 75 77 88 106 110 123 133 121 109 100 84 72 60 49 41 36 33 28 22 17 11 6 7 10 16 25 29
54 51 72 86 76 81 87 92 93 93 93 100 97 86 79 79 81 77 76 89 86 100 127 126 111 100 93 86 73 60 52 46 40 35 29 26 19 13 9 7 10 17 21 24
51 63 63 71 85 82 97 102 103 101 94 93 90 78 78 82 85 91 96 94 96 105 123 123 111 99 87 77 67 58 52 47 43 38 34 27 21 15 10 7 9 13 13 18
57 74 79 76 71 82 94 104 103 94 84 77 80 80 88 87 89 101 101 106 110 130 126 112 103 97 89 77 65 57 51 46 45 42 34 29 23 17 12 8 9 8 9 14
78 76 81 90 77 71 94 92 83 82 80 74 62 52 52 54 65 77 79 83 104 134 126 119 102 91 80 71 63 55 50 47 44 41 36 30 25 20 15 10 7 4 8 14
86 83 80 81 81 74 68 55 49 45 38 25 39 51 58 61 67 84 92 95 91 117 116 104 98 87 75 68 62 56 51 49 44 40 36 31 27 22 18 13 7 2 6 12
83 80 84 76 68 59 44 31 13 11 11 18 31 43 55 67 71 62 65 107 103 113 107 99 89 77 70 64 60 54 50 46 42 39 36 32 27 23 18 13 7 1 5 10
77 77 73 64 54 40 29 17 9 6 16 26 38 52 63 73 79 87 85 88 105 103 97 88 77 69 62 59 53 50 47 43 41 36 33 29 26 22 18 14 9 3 5 10
69 63 55 39 29 18 17 19 21 27 37 46 49 50 67 84 76 75 88 95 99 86 79 75 68 61 56 52 49 47 44 40 37 34 30 27 24 20 17 14 10 6 8 12
51 42 34 27 21 21 20 26 35 41 43 50 55 62 65 66 73 73 87 88 85 75 73 67 60 55 52 48 44 41 38 37 34 31 28 25 21 19 16 13 11 11 13 17
37 32 27 24 23 20 25 35 50 52 53 54 51 44 38 46 69 77 75 80 79 73 66 60 54 51 47 43 41 39 36 33 30 28 25 23 22 18 16 16 17 16 17 20
25 24 23 27 29 30 30 40 46 49 51 55 59 52 53 61 69 74 76 78 72 64 56 53 49 45 42 39 36 33 30 28 27 24 23 22 20 19 18 19 21 21 23 24
Wind_Direction_500mb
249 261 274 278 270 251 234 242 243 257 258 261 273 276 272 275 276 274 270 259 261 262 258 248 239 233 230 226 218 213 213 214 218 227 239 257 278 295 305 310 313 314 314 316
252 261 263 258 260 262 266 258 252 254 262 262 269 278 282 275 270 274 273 265 264 268 262 251 244 238 230 224 214 211 210 211 216 224 239 259 280 294 303 310 312 313 318 320
240 232 251 256 241 249 256 262 257 255 255 269 268 264 262 271 275 268 268 268 265 260 265 261 249 239 230 222 211 207 206 208 214 224 239 260 278 293 305 311 313 318 319 318
247 231 230 234 244 237 245 251 258 254 253 256 259 265 272 272 270 264 266 271 269 270 267 255 242 232 224 219 207 204 204 205 211 220 236 258 278 296 307 311 316 319 316 316
232 222 242 180 236 226 229 246 257 249 252 250 256 267 270 265 261 263 269 273 271 275 267 248 230 222 219 209 202 202 203 206 210 220 237 257 282 302 307 311 315 316 318 320
224 232 236 234 237 240 78 250 249 240 249 254 261 248 262 272 260 260 267 267 269 267 248 228 219 216 211 202 198 198 200 204 211 225 242 259 287 305 311 314 318 320 319 320
235 245 247 222 209 125 194 242 247 250 248 249 248 237 252 270 249 249 247 247 251 256 246 232 221 212 203 198 196 194 196 201 209 226 243 267 294 308 313 314 320 320 317 323
231 243 248 218 228 221 237 242 243 256 258 233 245 250 247 250 257 248 243 242 238 236 227 222 212 204 199 194 194 193 193 199 210 224 242 264 291 310 312 317 321 321 323 335
223 232 240 215 223 228 238 250 251 252 254 251 246 250 258 253 255 261 254 244 234 227 219 213 203 198 194 192 191 191 192 198 208 220 236 259 292 308 312 318 322 326 334 329
261 252 263 253 236 238 241 241 247 253 259 259 244 253 257 260 259 259 252 244 232 221 211 200 194 192 194 188 188 192 191 196 208 218 227 251 289 305 315 325 326 339 333 328
290 289 282 286 280 284 289 288 273 265 265 263 257 258 260 260 264 264 253 241 231 220 208 199 194 189 188 187 187 189 196 198 202 211 216 237 274 299 317 327 337 338 333 333
275 296 282 283 298 300 299 295 291 288 284 281 279 270 264 264 266 261 250 241 228 217 208 199 192 186 184 184 187 194 190 194 194 199 202 209 251 302 333 337 337 338 338 335
288 289 291 300 297 294 289 291 294 295 287 278 279 271 272 267 262 259 250 239 229 219 208 197 186 184 183 185 190 188 192 190 187 188 192 186 184 187 300 348 344 350 352 355
275 280 286 285 288 286 283 284 285 284 280 274 276 278 276 268 256 255 247 243 224 212 205 189 183 183 182 187 186 187 186 181 178 183 183 183 177 147 77 42 26 15 360 2
293 295 297 296 296 294 292 291 287 283 281 279 275 269 267 255 252 254 241 231 218 210 197 185 183 180 182 184 184 185 182 176 175 176 176 177 163 130 72 29 27 23 24 19
313 308 313 313 305 297 302 298 292 291 292 284 277 272 269 263 247 236 229 220 208 198 188 184 179 179 178 179 179 177 175 173 174 175 173 171 160 145 120 64 36 21 18 14
333 323 327 314 307 302 300 295 286 283 285 288 276 275 266 242 228 221 216 210 202 197 187 181 180 177 178 178 177 175 174 173 173 171 171 164 154 141 119 88 51 38 25 18
307 298 297 290 291 295 293 292 287 285 285 279 282 278 253 224 220 217 201 192 188 186 180 180 177 177 175 173 173 172 173 172 170 170 168 159 153 144 138 105 68 49 27 26
316 307 306 299 296 292 290 293 293 297 293 277 278 269 248 226 204 199 187 184 180 174 174 175 173 174 174 171 170 170 171 172 170 168 163 160 154 158 147 132 96 68 34 27
316 315 314 312 316 305 304 301 299 296 279 280 272 232 193 185 176 165 163 162 170 174 168 167 171 172 170 167 168 170 169 173 171 167 164 162 163 163 159 145 114 73 33 25
320 320 315 318 322 320 313 311 302 285 276 258 221 188 173 169 171 164 160 158 163 166 164 164 167 169 172 169 169 169 172 174 171 169 167 168 169 167 166 155 156 133 33 19
320 317 322 326 323 320 324 322 302 250 214 170 171 161 154 141 143 144 158 159 157 164 162 164 167 170 171 171 169 169 173 173 171 172 172 172 171 174 171 171 177 155 10 11
322 322 326 328 325 322 330 343 21 95 129 136 145 143 142 147 157 155 147 153 160 164 162 163 165 169 172 169 169 172 175 173 173 173 177 174 178 178 181 187 194 232 329 343
326 330 331 332 336 335 21 60 93 114 124 127 134 145 152 151 144 152 157 155 160 162 161 161 164 168 170 169 172 174 174 175 175 179 179 182 185 188 199 208 220 256 302 323
331 334 349 4 27 50 74 98 110 110 118 122 130 142 146 145 147 150 153 156 155 157 161 163 166 168 170 172 173 175 177 179 183 183 187 192 196 208 218 236 253 278 301 311
345 350 4 22 38 58 86 105 106 111 117 120 123 127 130 137 140 149 150 150 156 162 164 165 168 168 170 171 175 178 183 186 189 191 196 204 214 221 235 255 268 280 289 297
19 32 46 60 69 79 91 98 104 107 113 119 121 128 133 136 140 146 151 155 160 164 165 164 166 169 173 177 179 184 188 192 196 201 208 218 228 238 247 260 273 281 286 293
Wind_Speed_850mb
41 48 46 48 37 39 51 56 53 58 49 61 65 51 52 61 56 66 67 63 78 87 89 78 74 80 86 92 102 99 85 71 58 46 37 34 33 35 40 48 51 56 60 63
53 58 64 68 41 67 63 68 51 47 54 70 72 91 76 95 79 87 85 81 82 91 84 77 84 88 91 93 104 98 82 67 55 43 36 32 32 34 41 47 49 53 58 65
45 49 46 28 66 69 81 76 64 60 68 72 67 59 64 88 74 81 92 91 78 86 86 81 82 86 91 95 106 95 80 66 53 43 35 31 31 35 41 45 48 51 57 63
21 17 34 43 49 72 72 68 66 56 73 70 70 89 97 87 70 79 89 93 83 85 75 73 73 78 81 92 103 93 81 67 55 44 34 30 29 32 38 45 48 51 55 58
17 31 34 6 33 45 42 65 56 64 68 69 92 45 81 81 85 95 95 88 81 89 63 61 72 76 83 89 99 89 78 64 51 40 31 25 26 31 39 45 47 48 53 60
25 27 39 40 58 52 11 16 59 57 57 57 15 17 37 79 66 71 70 70 67 60 55 61 73 79 80 102 104 91 74 59 44 33 26 21 21 30 39 45 46 48 52 58
46 42 28 23 17 11 23 38 63 72 58 49 43 50 86 55 38 49 51 54 50 48 54 59 67 73 84 107 100 85 70 55 41 30 23 19 20 28 38 42 43 46 53 54
25 35 50 34 54 48 57 76 72 67 53 42 64 82 80 80 84 62 60 59 57 53 61 68 68 76 98 102 89 76 62 48 36 26 21 17 20 24 34 40 43 48 51 52
41 29 23 43 59 100 110 81 75 64 73 50 62 71 83 82 84 84 75 71 65 63 68 67 73 88 103 98 84 72 57 43 32 24 19 16 16 21 27 32 39 45 41 45
50 57 46 40 61 79 85 90 97 93 91 57 61 68 77 77 83 87 85 82 70 67 70 77 92 100 103 94 79 62 50 37 26 22 18 13 14 19 23 28 34 35 36 43
25 42 47 61 66 59 60 74 80 90 84 79 73 80 89 87 92 98 92 88 80 76 77 86 104 104 102 91 76 63 49 37 31 26 19 12 12 13 16 22 29 31 32 38
34 39 34 36 48 63 76 85 84 73 84 94 86 93 90 94 95 99 97 93 90 84 86 94 108 106 96 84 73 63 50 42 35 27 19 11 7 9 11 16 22 24 25 27
47 86 89 78 79 85 79 79 78 74 82 83 98 89 101 99 97 96 92 92 95 98 98 104 117 111 99 85 73 61 52 44 37 29 21 13 10 6 1 11 16 20 25 28
95 96 80 93 85 89 90 103 108 108 106 103 106 101 97 93 94 94 98 96 96 101 98 113 115 105 92 80 72 62 53 43 35 29 22 17 12 6 4 5 9 14 19 28
60 58 58 67 74 78 85 89 94 102 101 101 101 100 96 84 89 108 94 88 96 100 102 128 121 109 96 86 72 61 51 43 38 30 25 20 13 8 4 8 14 16 17 20
62 73 70 51 62 76 71 75 75 82 86 93 96 96 99 90 82 75 77 88 106 110 123 133 121 109 100 84 72 60 49 41 36 33 28 22 17 11 6 7 10 16 25 29
54 51 72 86 76 81 87 92 93 93 93 100 97 86 79 79 81 77 76 89 86 100 127 126 111 100 93 86 73 60 52 46 40 35 29 26 19 13 9 7 10 17 21 24
51 63 63 71 85 82 97 102 103 101 94 93 90 78 78 82 85 91 96 94 96 105 123 123 111 99 87 77 67 58 52 47 43 38 34 27 21 15 10 7 9 13 13 18
57 74 79 76 71 82 94 104 103 94 84 77 80 80 88 87 89 101 101 106 110 130 126 112 103 97 89 77 65 57 51 46 45 42 34 29 23 17 12 8 9 8 9 14
78 76 81 90 77 71 94 92 83 82 80 74 62 52 52 54 65 77 79 83 104 134 126 119 102 91 80 71 63 55 50 47 44 41 36 30 25 20 15 10 7 4 8 14
86 83 80 81 81 74 68 55 49 45 38 25 39 51 58 61 67 84 92 95 91 117 116 104 98 87 75 68 62 56 51 49 44 40 36 31 27 22 18 13 7 2 6 12
83 80 84 76 68 59 44 31 13 11 11 18 31 43 55 67 71 62 65 107 103 113 107 99 89 77 70 64 60 54 50 46 42 39 36 32 27 23 18 13 7 1 5 10
77 77 73 64 54 40 29 17 9 6 16 26 38 52 63 73 79 87 85 88 105 103 97 88 77 69 62 59 53 50 47 43 41 36 33 29 26 22 18 14 9 3 5 10
69 63 55 39 29 18 17 19 21 27 37 46 49 50 67 84 76 75 88 95 99 86 79 75 68 61 56 52 49 47 44 40 37 34 30 27 24 20 17 14 10 6 8 12
51 42 34 27 21 21 20 26 35 41 43 50 55 62 65 66 73 73 87 88 85 75 73 67 60 55 52 48 44 41 38 37 34 31 28 25 21 19 16 13 11 11 13 17
37 32 27 24 23 20 25 35 50 52 53 54 51 44 38 46 69 77 75 80 79 73 66 60 54 51 47 43 41 39 36 33 30 28 25 23 22 18 16 16 17 16 17 20
25 24 23 27 29 30 30 40 46 49 51 55 59 52 53 61 69 74 76 78 72 64 56 53 49 45 42 39 36 33 30 28 27 24 23 22 20 19 18 19 21 21 23 24
Wind_Direction_850mb
249 261 274 278 270 251 234 242 243 257 258 261 273 276 272 275 276 274 270 259 261 262 258 248 239 233 230 226 218 213 213 214 218 227 239 257 278 295 305 310 313 314 314 316
252 261 263 258 260 262 266 258 252 254 262 262 269 278 282 275 270 274 273 265 264 268 262 251 244 238 230 224 214 211 210 211 216 224 239 259 280 294 303 310 312 313 318 320
240 232 251 256 241 249 256 262 257 255 255 269 268 264 262 271 275 268 268 268 265 260 265 261 249 239 230 222 211 207 206 208 214 224 239 260 278 293 305 311 313 318 319 318
247 231 230 234 244 237 245 251 258 254 253 256 259 265 272 272 270 264 266 271 269 270 267 255 242 232 224 219 207 204 204 205 211 220 236 258 278 296 307 311 316 319 316 316
232 222 242 180 236 226 229 246 257 249 252 250 256 267 270 265 261 263 269 273 271 275 267 248 230 222 219 209 202 202 203 206 210 220 237 257 282 302 307 311 315 316 318 320
224 232 236 234 237 240 78 250 249 240 249 254 261 248 262 272 260 260 267 267 269 267 248 228 219 216 211 202 198 198 200 204 211 225 242 259 287 305 311 314 318 320 319 320
235 245 247 222 209 125 194 242 247 250 248 249 248 237 252 270 249 249 247 247 251 256 246 232 221 212 203 198 196 194 196 201 209 226 243 267 294 308 313 314 320 320 317 323
231 243 248 218 228 221 237 242 243 256 258 233 245 250 247 250 257 248 243 242 238 236 227 222 212 204 199 194 194 193 193 199 210 224 242 264 291 310 312 317 321 321 323 335
223 232 240 215 223 228 238 250 251 252 254 251 246 250 258 253 255 261 254 244 234 227 219 213 203 198 194 192 191 191 192 198 208 220 236 259 292 308 312 318 322 326 334 329
261 252 263 253 236 238 241 241 247 253 259 259 244 253 257 260 259 259 252 244 232 221 211 200 194 192 194 188 188 192 191 196 208 218 227 251 289 305 315 325 326 339 333 328
290 289 282 286 280 284 289 288 273 265 265 263 257 258 260 260 264 264 253 241 231 220 208 199 194 189 188 187 187 189 196 198 202 211 216 237 274 299 317 327 337 338 333 333
275 296 282 283 298 300 299 295 291 288 284 281 279 270 264 264 266 261 250 241 228 217 208 199 192 186 184 184 187 194 190 194 194 199 202 209 251 302 333 337 337 338 338 335
288 289 291 300 297 294 289 291 294 295 287 278 279 271 272 267 262 259 250 239 229 219 208 197 186 184 183 185 190 188 192 190 187 188 192 186 184 187 300 348 344 350 352 355
275 280 286 285 288 286 283 284 285 284 280 274 276 278 276 268 256 255 247 243 224 212 205 189 183 183 182 187 186 187 186 181 178 183 183 183 177 147 77 42 26 15 360 2
293 295 297 296 296 294 292 291 287 283 281 279 275 269 267 255 252 254 241 231 218 210 197 185 183 180 182 184 184 185 182 176 175 176 176 177 163 130 72 29 27 23 24 19
313 308 313 313 305 297 302 298 292 291 292 284 277 272 269 263 247 236 229 220 208 198 188 184 179 179 178 179 179 177 175 173 174 175 173 171 160 145 120 64 36 21 18 14
333 323 327 314 307 302 300 295 286 283 285 288 276 275 266 242 228 221 216 210 202 197 187 181 180 177 178 178 177 175 174 173 173 171 171 164 154 141 119 88 51 38 25 18
307 298 297 290 291 295 293 292 287 285 285 279 282 278 253 224 220 217 201 192 188 186 180 180 177 177 175 173 173 172 173 172 170 170 168 159 153 144 138 105 68 49 27 26
316 307 306 299 296 292 290 293 293 297 293 277 278 269 248 226 204 199 187 184 180 174 174 175 173 174 174 171 170 170 171 172 170 168 163 160 154 158 147 132 96 68 34 27
316 315 314 312 316 305 304 301 299 296 279 280 272 232 193 185 176 165 163 162 170 174 168 167 171 172 170 167 168 170 169 173 171 167 164 162 163 163 159 145 114 73 33 25
320 320 315 318 322 320 313 311 302 285 276 258 221 188 173 169 171 164 160 158 163 166 164 164 167 169 172 169 169 169 172 174 171 169 167 168 169 167 166 155 156 133 33 19
320 317 322 326 323 320 324 322 302 250 214 170 171 161 154 141 143 144 158 159 157 164 162 164 167 170 171 171 169 169 173 173 171 172 172 172 171 174 171 171 177 155 10 11
322 322 326 328 325 322 330 343 21 95 129 136 145 143 142 147 157 155 147 153 160 164 162 163 165 169 172 169 169 172 175 173 173 173 177 174 178 178 181 187 194 232 329 343
326 330 331 332 336 335 21 60 93 114 124 127 134 145 152 151 144 152 157 155 160 162 161 161 164 168 170 169 172 174 174 175 175 179 179 182 185 188 199 208 220 256 302 323
331 334 349 4 27 50 74 98 110 110 118 122 130 142 146 145 147 150 153 156 155 157 161 163 166 168 170 172 173 175 177 179 183 183 187 192 196 208 218 236 253 278 301 311
345 350 4 22 38 58 86 105 106 111 117 120 123 127 130 137 140 149 150 150 156 162 164 165 168 168 170 171 175 178 183 186 189 191 196 204 214 221 235 255 268 280 289 297
19 32 46 60 69 79 91 98 104 107 113 119 121 128 133 136 140 146 151 155 160 164 165 164 166 169 173 177 179 184 188 192 196 201 208 218 228 238 247 260 273 281 286 293